Flag for Switzerland Weather past 2 weeks in Geneva, Geneva, Switzerland

Now
64 °F

Mild.


Feels Like: 64 °F
Forecast: 46 / 76 °F
Wind: 5 mph from Southwest

Location: Geneve-Cointrin

Current Time: May 29, 2015 at 12:39:23 AM

Latest Report: May 28, 2015 at 10:00 PM


Visibility: N/A

Pressure: 30.01 "Hg

Humidity: 39%

Dew point: 38 °F

Location of GenevaLocation

Historic Weather in Geneva — Graph

°F

Geneva temperature yesterday

Maximum temperature yesterday: 76 °F (at 5:00 PM)
Minimum temperature yesterday: 43 °F (at 5:00 AM)
Average temperature yesterday: 60 °F

Past Weeks' High & Low Weather Summary

 TemperatureHumidityPressure
High77 °F (May 18, 4:00 PM)93% (May 26, 5:00 AM)30.33 "Hg (May 26, 5:00 AM)
Low43 °F (May 28, 5:00 AM)23% (May 28, 4:00 PM)29.75 "Hg (May 18, 6:00 PM)
Average58 °F61%30.05 "Hg
* Reported May 13 10:00 PM — May 28 10:00 PM, Geneva, Weather by CustomWeather, © 2015

Note: Actual official high and low records may vary slightly from our data, if they occured in-between our weather recording intervals... More about our weather records

Advertising

Geneva weather history for previous 24 hours

 ConditionsComfort  
Time TempWeatherWind HumidityBarometerVisibility
10:00 PM
Thu, May 28
64 °FMild.5 mph39%30.01 "HgN/A
9:00 PM65 °FMild.3 mph37%29.99 "HgN/A
8:00 PM71 °FPartly sunny.6 mph30%29.97 "Hg28 mi
7:00 PM74 °FMild.9 mph26%29.96 "HgN/A
6:00 PM75 °FMild.12 mph28%29.96 "HgN/A
5:00 PM76 °FPartly sunny.7 mph28%29.97 "Hg28 mi
4:00 PM74 °FMild.8 mph23%29.99 "HgN/A
3:00 PM73 °FMild.6 mph31%30.01 "HgN/A
2:00 PM72 °FScattered clouds.7 mph30%30.03 "Hg28 mi
1:00 PM67 °FMild.2 mph41%30.06 "HgN/A
12:00 PM65 °FMild.5 mph46%30.08 "HgN/A
11:00 AM62 °FPassing clouds.3 mph48%30.11 "Hg28 mi
10:00 AM59 °FRefreshingly cool.2 mph60%30.13 "HgN/A
9:00 AM55 °FCool.2 mph60%30.14 "HgN/A
8:00 AM51 °FPassing clouds.2 mph70%30.15 "Hg28 mi
7:00 AM47 °FCool.1 mph81%30.17 "HgN/A
6:00 AM44 °FQuite cool.1 mph85%30.17 "HgN/A
5:00 AM43 °FPassing clouds.2 mph88%30.17 "Hg31 mi
4:00 AM44 °FQuite cool.No wind86%30.17 "HgN/A
3:00 AM46 °FCool.1 mph82%30.16 "HgN/A
2:00 AM47 °FCool.2 mph77%30.17 "HgN/A
1:00 AM48 °FCool.1 mph78%30.17 "HgN/A
12:00 AM50 °FCool.1 mph71%30.17 "HgN/A
Weather by CustomWeather, © 2015

See weather overviewHow to use our weather pages